GW4386 Weather Reports


Display with metric or nautical units.
time (UTC)temp
F
wind
direction
speed
MPH
gust
MPH
rain 1hr
in
rain 24hr
in
rain mn
in
humidity
%
barometer
mb
20260902101058 65 238 3.0 10.0 0.00 0.09 0.00 77 1021.3
20260902100559 65 220 2.0 10.0 0.00 0.09 0.00 76 1021.2
20260902100058 65 233 3.0 13.0 0.00 0.09 0.00 76 1021.3
20260902095559 65 286 4.0 13.0 0.00 0.09 0.00 76 1021.2
20260902095059 65 235 5.0 12.0 0.00 0.09 0.00 75 1021.2
20260902094559 65 269 7.0 12.0 0.00 0.09 0.00 76 1021.3
20260902094058 65 265 3.0 12.0 0.00 0.09 0.00 77 1021.3
20260902093602 65 238 7.0 12.0 0.00 0.09 0.00 77 1021.4
20260902093104 65 217 5.0 11.0 0.00 0.09 0.00 76 1021.4
20260902092557 64 211 5.0 11.0 0.00 0.09 0.00 77 1021.3
20260902092100 64 195 4.0 11.0 0.00 0.09 0.00 79 1021.4
20260902091600 63 310 1.0 10.0 0.00 0.09 0.00 81 1021.3
20260902091058 63 274 2.0 12.0 0.00 0.09 0.00 80 1021.3
20260902090558 64 296 5.0 12.0 0.00 0.09 0.00 79 1021.3
20260902090111 65 306 3.0 11.0 0.00 0.09 0.00 79 1021.2
20260902085557 64 215 5.0 11.0 0.00 0.09 0.00 80 1021.2
20260902085057 64 312 4.0 14.0 0.00 0.09 0.00 80 1021.2
20260902084600 63 184 6.0 15.0 0.00 0.09 0.00 80 1021.3
20260902084056 63 236 6.0 15.0 0.00 0.09 0.00 81 1021.3
20260902083557 63 246 4.0 10.0 0.00 0.09 0.00 81 1021.2
20260902083056 63 213 4.0 10.0 0.00 0.09 0.00 81 1021.2
20260902082600 63 290 3.0 12.0 0.00 0.09 0.00 80 1021.2
20260902082058 63 292 6.0 12.0 0.00 0.09 0.00 81 1021.1
20260902081557 63 221 4.0 16.0 0.00 0.09 0.00 80 1021.0
20260902081059 63 225 7.0 16.0 0.00 0.09 0.00 80 1021.1
20260902080557 63 199 7.0 11.0 0.00 0.09 0.00 81 1021.0
20260902080058 63 280 5.0 12.0 0.00 0.09 0.00 81 1021.0
20260902075557 63 227 5.0 12.0 0.00 0.09 0.00 82 1020.9
20260902075102 63 189 4.0 11.0 0.00 0.09 0.00 84 1020.8
20260902074604 62 305 5.0 13.0 0.00 0.09 0.00 84 1020.8
20260902074056 62 207 6.0 13.0 0.00 0.09 0.00 84 1020.8
20260902073600 62 209 4.0 12.0 0.00 0.09 0.00 84 1020.8
20260902073102 62 232 4.0 12.0 0.00 0.09 0.00 84 1020.7
20260902072557 62 223 5.0 12.0 0.00 0.09 0.00 85 1020.7
20260902072057 62 219 6.0 11.0 0.00 0.09 0.00 85 1020.6
20260902071557 61 221 6.0 14.0 0.00 0.09 0.00 86 1020.6
20260902071057 61 306 7.0 12.0 0.00 0.09 0.00 85 1020.6
20260902070558 61 237 5.0 11.0 0.00 0.09 0.00 85 1020.6
20260902070057 61 243 6.0 11.0 0.00 0.09 0.00 86 1020.6
20260902065558 61 204 6.0 10.0 0.00 0.09 0.00 86 1020.5
20260902065059 61 226 5.0 11.0 0.00 0.09 0.00 87 1020.5
20260902064558 61 205 5.0 9.0 0.00 0.09 0.00 87 1020.4
20260902064058 60 219 4.0 10.0 0.00 0.09 0.00 87 1020.5
20260902063558 60 297 4.0 10.0 0.00 0.09 0.00 87 1020.4
20260902063058 60 229 5.0 10.0 0.00 0.09 0.00 87 1020.4
20260902062558 60 198 4.0 9.0 0.00 0.09 0.00 88 1020.4
20260902062102 60 230 4.0 8.0 0.00 0.09 0.00 88 1020.3
20260902061101 59 195 3.0 6.0 0.00 0.09 0.00 88 1020.4
20260902060558 59 212 3.0 11.0 0.00 0.09 0.00 89 1020.4
20260902055559 58 242 4.0 9.0 0.00 0.09 0.00 89 1020.3
20260902055057 58 215 4.0 10.0 0.00 0.09 0.00 89 1020.2
20260902054611 58 220 5.0 10.0 0.00 0.09 0.00 88 1020.1
20260902054057 58 220 4.0 10.0 0.00 0.09 0.00 88 1020.2
20260902053557 58 151 3.0 8.0 0.00 0.09 0.00 88 1020.1
20260902053105 57 214 4.0 8.0 0.00 0.09 0.00 88 1020.2
20260902052557 57 202 4.0 8.0 0.00 0.09 0.00 88 1020.1
20260902052057 57 217 3.0 7.0 0.00 0.09 0.00 87 1020.1
20260902051559 57 221 3.0 7.0 0.00 0.09 0.00 87 1020.1
20260902051057 57 214 4.0 6.0 0.00 0.09 0.00 87 1020.1
20260902050557 57 228 3.0 6.0 0.00 0.09 0.00 87 1020.0
20260902050058 56 219 2.0 6.0 0.00 0.09 0.00 87 1020.0
20260902045556 56 230 3.0 6.0 0.00 0.09 0.00 87 1019.9
20260902045058 56 221 2.0 8.0 0.00 0.09 0.00 87 1019.9
20260902044557 56 197 2.0 8.0 0.00 0.09 0.00 87 1019.9
20260902044057 56 178 3.0 5.0 0.00 0.09 0.00 87 1019.8
20260902043557 56 195 2.0 5.0 0.00 0.09 0.00 88 1019.8
20260902043103 56 232 1.0 5.0 0.00 0.09 0.00 88 1019.8
20260902042557 56 236 2.0 4.0 0.00 0.09 0.00 88 1019.8
20260902042057 56 200 1.0 4.0 0.00 0.09 0.00 88 1019.7
20260902041557 56 178 2.0 5.0 0.00 0.09 0.00 88 1019.7
20260902041057 56 235 2.0 5.0 0.00 0.09 0.00 88 1019.7
20260902040600 56 212 2.0 4.0 0.00 0.09 0.00 88 1019.7
20260902040057 56 195 1.0 5.0 0.00 0.09 0.00 88 1019.7
20260902035557 56 205 3.0 6.0 0.00 0.09 0.00 88 1019.6
20260902035057 56 195 2.0 5.0 0.00 0.09 0.00 88 1019.7
20260902034601 56 197 2.0 6.0 0.00 0.09 0.00 88 1019.6
20260902034057 56 211 3.0 7.0 0.00 0.09 0.00 88 1019.7
20260902033600 56 186 2.0 6.0 0.00 0.09 0.00 88 1019.6
20260902033059 56 204 2.0 7.0 0.00 0.09 0.00 88 1019.6
20260902032557 56 193 3.0 7.0 0.00 0.09 0.00 88 1019.6
20260902032057 56 181 2.0 7.0 0.00 0.09 0.00 88 1019.7
20260902031557 56 139 2.0 7.0 0.00 0.09 0.00 88 1019.7
20260902031100 56 221 2.0 5.0 0.00 0.09 0.00 88 1019.6
20260902030557 56 227 2.0 5.0 0.00 0.09 0.00 88 1019.6
20260902030058 56 195 2.0 4.0 0.00 0.09 0.00 88 1019.6
20260902025557 56 169 1.0 5.0 0.00 0.09 0.00 88 1019.6
20260902025057 56 200 2.0 5.0 0.00 0.09 0.00 88 1019.6
20260902024557 56 211 1.0 4.0 0.00 0.09 0.00 88 1019.6
20260902024057 56 204 3.0 5.0 0.00 0.09 0.00 88 1019.5
20260902023557 56 198 3.0 5.0 0.00 0.09 0.00 88 1019.5
20260902023108 56 193 2.0 5.0 0.00 0.09 0.00 88 1019.5
20260902022557 56 195 3.0 5.0 0.00 0.09 0.00 88 1019.5
20260902022057 57 191 3.0 5.0 0.00 0.09 0.00 88 1019.5
20260902021558 57 213 2.0 5.0 0.00 0.09 0.00 88 1019.6
20260902021057 57 207 2.0 6.0 0.00 0.09 0.00 88 1019.5
20260902020600 57 209 2.0 5.0 0.00 0.09 0.00 88 1019.6
20260902020058 57 202 2.0 6.0 0.00 0.09 0.00 88 1019.5
20260902015557 57 207 3.0 7.0 0.00 0.09 0.00 88 1019.5
20260902015058 57 199 2.0 6.0 0.00 0.09 0.00 88 1019.5
20260902014558 57 197 3.0 7.0 0.00 0.09 0.00 88 1019.5
20260902014057 57 149 3.0 7.0 0.00 0.09 0.00 88 1019.6
20260902013557 57 184 3.0 8.0 0.00 0.09 0.00 88 1019.5
20260902013058 57 217 3.0 8.0 0.00 0.09 0.00 88 1019.5
20260902012600 57 171 2.0 5.0 0.00 0.09 0.00 88 1019.4
20260902012057 57 194 2.0 5.0 0.00 0.09 0.00 88 1019.4
20260902011557 57 209 0.0 5.0 0.00 0.09 0.00 88 1019.3
20260902011057 57 228 2.0 5.0 0.00 0.09 0.00 88 1019.3
20260902010557 57 205 2.0 5.0 0.00 0.09 0.00 88 1019.3
20260902005557 57 225 1.0 5.0 0.00 0.09 0.00 88 1019.3
20260902005057 57 204 2.0 5.0 0.00 0.09 0.00 88 1019.3
20260902004558 57 196 2.0 5.0 0.00 0.09 0.00 88 1019.3
20260902004057 57 232 1.0 4.0 0.00 0.09 0.00 88 1019.3
20260902003557 57 148 1.0 7.0 0.00 0.09 0.00 88 1019.3
20260902003058 57 222 3.0 7.0 0.00 0.09 0.00 88 1019.3
20260902002558 57 217 1.0 4.0 0.00 0.09 0.00 88 1019.3
20260902002057 57 158 2.0 4.0 0.00 0.09 0.00 88 1019.3
20260902001617 57 188 2.0 4.0 0.00 0.09 0.00 88 1019.2
20260902001059 57 184 2.0 7.0 0.00 0.09 0.00 88 1019.2
20260902000557 58 195 3.0 7.0 0.00 0.09 0.00 88 1019.2
20260902000104 58 207 1.0 5.0 0.00 0.09 0.00 88 1019.2
20260901235557 58 188 3.0 6.0 0.00 0.09 0.00 88 1019.2
20260901235057 58 225 3.0 6.0 0.00 0.09 0.00 88 1019.3
20260901234557 58 212 2.0 6.0 0.00 0.09 0.00 88 1019.2
20260901234057 58 205 3.0 6.0 0.00 0.09 0.00 88 1019.2
20260901233558 58 207 2.0 5.0 0.00 0.09 0.00 87 1019.2
20260901233058 58 207 2.0 6.0 0.00 0.09 0.00 87 1019.1
20260901232600 58 149 1.0 6.0 0.00 0.09 0.00 87 1019.1
20260901232057 58 186 1.0 7.0 0.00 0.09 0.00 87 1019.1
20260901231604 58 211 2.0 10.0 0.00 0.09 0.00 87 1019.1
20260901231056 58 212 4.0 10.0 0.00 0.09 0.00 87 1019.2
20260901230557 58 213 3.0 7.0 0.00 0.09 0.00 87 1019.3
20260901230058 58 173 2.0 5.0 0.00 0.09 0.00 87 1019.2
20260901225600 58 209 2.0 5.0 0.00 0.09 0.00 87 1019.1
20260901225059 58 207 2.0 5.0 0.00 0.09 0.00 87 1019.2
20260901224558 58 195 2.0 5.0 0.00 0.09 0.00 87 1019.2
20260901224059 58 184 1.0 5.0 0.00 0.09 0.00 87 1019.2
20260901223559 59 177 3.0 5.0 0.00 0.09 0.00 87 1019.2
20260901223100 59 193 1.0 6.0 0.00 0.09 0.00 87 1019.1
20260901222559 59 179 2.0 6.0 0.00 0.09 0.00 87 1019.1
20260901222059 59 166 2.0 5.0 0.00 0.09 0.00 87 1019.2
20260901221611 59 207 2.0 4.0 0.00 0.09 0.00 87 1019.2
20260901221059 59 174 1.0 4.0 0.00 0.09 0.00 87 1019.1
20260901220559 59 196 0.0 5.0 0.00 0.09 0.00 87 1019.1
20260901220116 59 207 1.0 4.0 0.00 0.09 0.00 87 1019.1
20260901220003 59 191 1.0 4.0 0.00 0.09 0.00 87 1019.0
20260901215559 59 155 1.0 4.0 0.00 0.09 0.09 87 1019.1
20260901215059 59 223 0.0 4.0 0.00 0.09 0.09 87 1019.0
20260901214603 59 184 1.0 4.0 0.00 0.09 0.09 88 1019.1
20260901214059 59 151 2.0 4.0 0.00 0.09 0.09 87 1019.1
20260901213559 59 209 2.0 4.0 0.00 0.09 0.09 87 1019.1
20260901213101 59 207 1.0 5.0 0.00 0.09 0.09 88 1019.0
20260901212600 59 144 2.0 5.0 0.00 0.09 0.09 88 1019.0
20260901212100 59 196 2.0 5.0 0.00 0.09 0.09 88 1019.1
20260901211559 59 225 1.0 3.0 0.00 0.09 0.09 88 1019.1
20260901211059 59 154 0.0 3.0 0.00 0.09 0.09 88 1019.1
20260901210559 59 207 1.0 4.0 0.00 0.09 0.09 88 1019.0
20260901210059 59 169 2.0 4.0 0.00 0.09 0.09 88 1019.1
20260901205602 59 156 2.0 4.0 0.00 0.09 0.09 88 1019.1
20260901205103 59 178 0.0 5.0 0.00 0.09 0.09 88 1019.1
20260901204558 59 159 1.0 5.0 0.00 0.09 0.09 88 1019.1
20260901204108 59 160 1.0 4.0 0.00 0.09 0.09 88 1019.1
20260901203559 59 191 2.0 3.0 0.00 0.09 0.09 88 1019.1
20260901203100 59 188 0.0 3.0 0.00 0.09 0.09 88 1019.1
20260901202601 59 197 1.0 3.0 0.01 0.09 0.09 88 1019.0
20260901202101 59 202 1.0 3.0 0.01 0.09 0.09 88 1019.0
20260901201559 60 211 0.0 3.0 0.01 0.09 0.09 88 1018.9
20260901201059 60 227 0.0 4.0 0.01 0.09 0.09 89 1018.9
20260901200600 60 186 1.0 4.0 0.01 0.09 0.09 89 1018.9
20260901200058 60 190 1.0 4.0 0.01 0.09 0.09 88 1018.9
20260901195558 60 182 2.0 4.0 0.01 0.09 0.09 88 1018.9
20260901195102 60 199 2.0 5.0 0.01 0.09 0.09 88 1018.9
20260901194558 60 200 3.0 5.0 0.01 0.09 0.09 88 1019.0
20260901194058 60 196 2.0 5.0 0.01 0.09 0.09 88 1019.0
20260901193557 60 161 1.0 7.0 0.01 0.09 0.09 88 1018.9
20260901193057 60 223 2.0 15.0 0.01 0.09 0.09 88 1018.9
20260901192557 60 218 4.0 15.0 0.00 0.08 0.08 88 1018.9
20260901192059 60 222 4.0 9.0 0.00 0.08 0.08 89 1018.9
20260901191605 59 202 4.0 10.0 0.00 0.08 0.08 88 1018.9
20260901191059 59 209 2.0 5.0 0.00 0.08 0.08 88 1018.9
20260901190558 59 223 2.0 5.0 0.00 0.08 0.08 88 1018.9
20260901190059 59 220 1.0 4.0 0.00 0.08 0.08 88 1018.8
20260901185559 59 198 1.0 4.0 0.00 0.08 0.08 88 1018.8
20260901185059 59 235 1.0 5.0 0.00 0.08 0.08 88 1018.8
20260901184559 60 182 2.0 4.0 0.00 0.08 0.08 88 1018.7
20260901184059 60 218 2.0 4.0 0.00 0.08 0.08 88 1018.6
20260901183558 60 209 2.0 4.0 0.00 0.08 0.08 88 1018.7
20260901183102 60 218 1.0 5.0 0.00 0.08 0.08 88 1018.6
20260901182603 60 209 0.0 5.0 0.00 0.08 0.08 88 1018.5
20260901182059 60 234 0.0 3.0 0.00 0.08 0.08 88 1018.4
20260901181606 61 216 0.0 2.0 0.00 0.08 0.08 88 1018.4
20260901181101 61 242 0.0 3.0 0.00 0.08 0.08 88 1018.4
20260901180559 61 220 0.0 4.0 0.00 0.08 0.08 88 1018.3
20260901180059 61 232 2.0 5.0 0.00 0.08 0.08 88 1018.3
20260901175558 61 211 1.0 4.0 0.00 0.08 0.08 88 1018.2
20260901175057 61 223 1.0 4.0 0.00 0.08 0.08 88 1018.2
20260901174558 61 228 1.0 5.0 0.00 0.08 0.08 88 1018.2
20260901174059 61 197 2.0 5.0 0.00 0.08 0.08 88 1018.0
20260901173559 61 209 1.0 5.0 0.00 0.08 0.08 88 1018.0
20260901173103 61 202 0.0 3.0 0.00 0.08 0.08 88 1017.9
20260901172558 62 241 0.0 3.0 0.00 0.08 0.08 88 1017.9
20260901172101 62 236 0.0 3.0 0.00 0.08 0.08 88 1017.8
20260901172001 62 215 0.0 3.0 0.00 0.08 0.08 88 1017.8
20260901171604 62 220 0.0 1.0 0.00 0.08 0.08 88 1017.8
20260901171058 63 228 0.0 1.0 0.01 0.08 0.08 87 1017.8
20260901170558 63 207 0.0 2.0 0.01 0.08 0.08 87 1017.8
20260901170058 63 284 0.0 4.0 0.01 0.08 0.08 87 1017.8
20260901170006 63 271 0.0 4.0 0.01 0.08 0.08 87 1017.8
20260901165558 63 220 0.0 5.0 0.01 0.08 0.08 87 1017.8
20260901165059 64 240 1.0 6.0 0.02 0.08 0.08 87 1017.7
20260901164559 64 233 2.0 5.0 0.02 0.08 0.08 87 1017.7
20260901164059 64 207 0.0 5.0 0.02 0.08 0.08 87 1017.7
20260901163559 65 267 2.0 5.0 0.02 0.08 0.08 87 1017.7
20260901163059 65 284 0.0 10.0 0.02 0.08 0.08 87 1017.7
20260901162603 65 319 2.0 10.0 0.04 0.08 0.08 87 1017.7
20260901162100 65 248 2.0 6.0 0.04 0.08 0.08 88 1017.7
20260901161610 64 195 0.0 6.0 0.05 0.08 0.08 88 1017.6
20260901161059 64 244 1.0 5.0 0.04 0.07 0.07 88 1017.5
20260901160558 64 225 1.0 4.0 0.04 0.07 0.07 88 1017.5
20260901160110 64 264 2.0 4.0 0.05 0.07 0.07 88 1017.4
20260901160001 64 301 2.0 4.0 0.06 0.07 0.07 88 1017.4
20260901155559 64 140 0.0 3.0 0.07 0.07 0.07 88 1017.4
20260901155102 64 294 1.0 6.0 0.06 0.06 0.06 88 1017.4
20260901154601 64 193 1.0 6.0 0.06 0.06 0.06 88 1017.4
20260901154059 64 288 3.0 6.0 0.06 0.06 0.06 88 1017.4
20260901154003 63 207 3.0 6.0 0.06 0.06 0.06 88 1017.4
20260901153559 64 215 1.0 4.0 0.06 0.06 0.06 88 1017.4
20260901153059 64 296 2.0 5.0 0.06 0.06 0.06 87 1017.4
20260901152558 64 29 1.0 5.0 0.04 0.04 0.04 87 1017.2
20260901152059 64 303 0.0 3.0 0.04 0.04 0.04 87 1017.2
20260901151600 64 297 0.0 5.0 0.03 0.03 0.03 86 1017.2
20260901151102 65 272 1.0 9.0 0.03 0.03 0.03 85 1017.2
20260901150559 66 223 2.0 10.0 0.03 0.03 0.03 83 1017.2
20260901150059 67 223 4.0 9.0 0.02 0.02 0.02 80 1017.1
20260901145559 67 227 2.0 7.0 0.00 0.00 0.00 79 1017.1
20260901145059 67 221 3.0 15.0 0.00 0.00 0.00 79 1017.1
20260901144659 67 205 7.0 15.0 0.00 0.00 0.00 78 1017.1
20260901144103 67 197 5.0 20.0 0.00 0.00 0.00 78 1017.1
20260901143559 68 238 6.0 20.0 0.00 0.00 0.00 77 1017.2
20260901143100 67 286 8.0 12.0 0.00 0.00 0.00 77 1017.2
20260901142558 68 236 7.0 19.0 0.00 0.00 0.00 76 1017.2
20260901142058 68 214 8.0 19.0 0.00 0.00 0.00 76 1017.2
20260901141558 68 235 7.0 15.0 0.00 0.00 0.00 76 1017.1
20260901141059 67 249 7.0 11.0 0.00 0.00 0.00 79 1017.2
20260901140559 66 236 5.0 10.0 0.00 0.00 0.00 80 1017.0
20260901140103 66 218 5.0 10.0 0.00 0.00 0.00 79 1017.0
20260901135557 66 205 5.0 12.0 0.00 0.00 0.00 79 1017.1
20260901135057 66 221 6.0 15.0 0.00 0.00 0.00 78 1017.2
20260901134558 66 229 8.0 15.0 0.00 0.00 0.00 76 1017.1
20260901134100 67 243 8.0 18.0 0.00 0.00 0.00 74 1017.1
20260901133701 67 205 8.0 18.0 0.00 0.00 0.00 73 1017.2
20260901133058 69 223 6.0 15.0 0.00 0.00 0.00 72 1017.1
20260901132559 69 227 7.0 15.0 0.00 0.00 0.00 70 1017.1
20260901132058 69 219 4.0 15.0 0.00 0.00 0.00 70 1017.0
20260901131558 70 265 5.0 12.0 0.00 0.00 0.00 71 1017.0
20260901131100 69 248 3.0 10.0 0.00 0.00 0.00 72 1017.0
20260901130558 68 246 6.0 17.0 0.00 0.00 0.00 72 1017.0
20260901125558 68 262 6.0 16.0 0.00 0.00 0.00 73 1017.0
20260901125100 68 240 5.0 14.0 0.00 0.00 0.00 73 1017.0
20260901124559 67 221 5.0 18.0 0.00 0.00 0.00 76 1017.0
20260901124058 66 247 8.0 18.0 0.00 0.00 0.00 77 1017.1
20260901123558 66 238 6.0 16.0 0.00 0.00 0.00 76 1017.0
20260901123100 66 228 7.0 16.0 0.00 0.00 0.00 74 1017.0
20260901122559 67 232 8.0 12.0 0.00 0.00 0.00 72 1017.0
20260901122100 68 240 4.0 16.0 0.00 0.00 0.00 70 1016.8
20260901121600 68 226 9.0 16.0 0.00 0.00 0.00 70 1016.8
20260901121059 67 215 2.0 9.0 0.00 0.00 0.00 72 1016.8
20260901120559 67 205 4.0 14.0 0.00 0.00 0.00 71 1016.8
20260901120059 67 225 7.0 18.0 0.00 0.00 0.00 70 1016.9
20260901115600 68 240 7.0 18.0 0.00 0.00 0.00 68 1016.9
20260901115059 68 295 4.0 18.0 0.00 0.00 0.00 67 1016.8
20260901114639 69 193 8.0 12.0 0.00 0.00 0.00 68 1016.8
20260901114059 68 221 5.0 18.0 0.00 0.00 0.00 69 1016.8
20260901113558 68 221 8.0 18.0 0.00 0.00 0.00 69 1016.7
20260901113059 68 233 7.0 16.0 0.00 0.00 0.00 69 1016.9
20260901113001 68 211 7.0 15.0 0.00 0.00 0.00 69 1016.8
20260901112558 68 209 6.0 14.0 0.00 0.00 0.00 69 1016.8
20260901112058 68 324 5.0 12.0 0.00 0.00 0.00 68 1016.8
20260901111559 69 292 5.0 12.0 0.00 0.00 0.00 66 1016.8
20260901111059 69 269 4.0 18.0 0.00 0.00 0.00 68 1016.7
20260901110601 68 193 7.0 18.0 0.00 0.00 0.00 67 1016.8
20260901110101 68 207 2.0 17.0 0.00 0.00 0.00 71 1016.8
20260901105558 66 257 9.0 17.0 0.00 0.00 0.00 71 1016.9
20260901105058 66 240 6.0 13.0 0.00 0.00 0.00 71 1016.8
20260901104557 67 219 5.0 15.0 0.00 0.00 0.00 71 1016.7
20260901104058 67 221 5.0 15.0 0.00 0.00 0.00 70 1016.6
20260901103557 68 260 6.0 14.0 0.00 0.00 0.00 70 1016.6
20260901103057 67 219 5.0 17.0 0.00 0.00 0.00 71 1016.6
20260901102558 66 298 7.0 17.0 0.00 0.00 0.00 72 1016.6
20260901102102 65 294 5.0 12.0 0.00 0.00 0.00 73 1016.6
20260901101601 65 230 8.0 14.0 0.00 0.00 0.00 71 1016.5